Погода в Алеканово

Россия / Рязанская область     54°37′24″N   39°58′40″E
темп.,
°C
ветер,
м/с
пор.,
м/с
влажн.,
%
обл.,
%
осадки,
мм/ч
давл.,
гПа
погр.,
м
23 апреля, пт
пт2300:00+7ю412865 0.0 1019216
03:00+6ю4108962 0.0 1018160
06:00+6ю4108929 0.0 1019177
09:00+12ююз510695 0.3 1018517
12:00+16ю7846100 0.1 10172486
15:00+16ю694785 0.1 10162243
18:00+13ююв59635 0.2 1014454
21:00+10ююв513755 0.3 1013275
24 апреля, сб
сб2400:00+8ююв5138697 0.5 1011289
03:00+7ююв411918 0.6 1009257
06:00+7ююв4995100 0.4 1008251
09:00+10ю71379100 0.9 10061365
12:00+3з5896100 3.0 1007516
15:00+5з5894100 4.4 1007667
18:00+6з478178 0.2 1007727
21:00+4юз268999 0.4 1007170
25 апреля, вс
вс2500:00+2зюз4991100 0.1 1006260
03:00+3зсз51297100 3.1 1007879
06:00+2з6138387 0.7 1009576
09:00+4з8107297 0.7 10111119
12:00+7з81056100 0.6 10112062
15:00+8зюз9125672 1.5 10122264
18:00+7юз6961100 0.4 10111012
21:00+3ююз5109226 1.3 1012411
26 апреля, пн
пн2600:00+2зюз389086 0.1 1012315
03:00+1юз410925 0.1 1013271
06:00+1юз49894 0.0 1014269
09:00+5юз57635 0.0 10141069
12:00+8юз5650100 0.1 10132132
15:00+8юз565196 0.6 10121587
18:00+7юз466375 0.6 1011560
21:00+4юз337191 0.6 101132
27 апреля, вт
вт2700:00+3з2271100 0.0 101010
03:00+2ююз1176100 0.0 100910
06:00+2ююз1178100 0.0 100810
09:00+6юз216791 0.2 1007506
12:00+8юз2158100 2.0 10061190
15:00+6зсз4570100 5.4 1007938
18:00+6зсз4770100 1.9 1007520
21:00+3зюз410805 2.1 1008211